User: anonymous   Login
Location: Unspecified
(0.0000°N, 0.0000°E)
Time: 05:03:08
(UTC+00:00)
Language:

AEHF 4 (USA 288) - Orbit

View from above orbital plane
View from above orbital plane
View from above satellite
View from above satellite

Ground track
Ground track

The orbit data is extracted from the following two-line orbital elements,

1 43651U 18079A   23275.48951163 -.00000286  00000-0  00000+0 0  9996
2 43651   1.9539 324.7286 0003660 233.6533 281.2689  1.00275764 18377
Epoch (UTC): 02 October 2023 11:44:53
Eccentricity: 0.0003660
inclination: 1.9539°
perigee height: 35769 km
apogee height: 35800 km
right ascension of ascending node: 324.7286°
argument of perigee: 233.6533°
revolutions per day: 1.00275764
mean anomaly at epoch: 281.2689°
orbit number at epoch: 1837

The dashed part of the orbit path shows where the satellite is in the earth's shadow,  

DLR